[TLELIST] Archives

 

[TLELIST] Current TLEs

August 27th 2025 PDT

0 HST 1 20580U 90037B 25239.28175207 .00006442 00000-0 23501-3 0 9997 2 20580 28.4677 282.7682 0002467 140.7816 219.2958 15.26031468743558 0 ISS (ZARYA) 1 25544U 98067A 25239.23760054 .00012044 00000-0 21699-3 0 9999 2 25544 51.6344 314.9180 0003277 277.8648 82.1969 15.50220949526186 0 CXO 1 25867U 99040B 25240.84165294 .00000838 00000-0 00000-0 0 9991 2 25867 50.9502 126.6159 8307802 310.2637 0.7120 0.37807055 16216 ...Continue Reading

[TLELIST] Current TLEs

August 27th 2025 PDT

0 HST 1 20580U 90037B 25239.28175207 .00006442 00000-0 23501-3 0 9997 2 20580 28.4677 282.7682 0002467 140.7816 219.2958 15.26031468743558 0 ISS (ZARYA) 1 25544U 98067A 25239.23760054 .00012044 00000-0 21699-3 0 9999 2 25544 51.6344 314.9180 0003277 277.8648 82.1969 15.50220949526186 0 CXO 1 25867U 99040B 25240.84165294 .00000838 00000-0 00000-0 0 9991 2 25867 50.9502 126.6159 8307802 310.2637 0.7120 0.37807055 16216 ...Continue Reading

[TLELIST] Current TLEs

August 26th 2025 PDT

0 HST 1 20580U 90037B 25237.51599701 .00005432 00000-0 19705-3 0 9999 2 20580 28.4679 294.7509 0002490 123.7647 236.3185 15.26010319743284 0 ISS (ZARYA) 1 25544U 98067A 25237.49704057 .00011679 00000-0 21103-3 0 9999 2 25544 51.6352 323.5450 0003284 269.6475 90.4138 15.50171099525917 0 CXO 1 25867U 99040B 25238.19739404 .00000777 00000-0 00000-0 0 9998 2 25867 50.9309 126.6818 8312971 310.2751 0.7046 0.37808395 16207 ...Continue Reading

[TLELIST] Current TLEs

August 25th 2025 PDT

0 HST 1 20580U 90037B 25236.53501152 .00005318 00000-0 19282-3 0 9996 2 20580 28.4681 301.4076 0002506 114.8734 245.2122 15.26000674743135 0 ISS (ZARYA) 1 25544U 98067A 25236.72343932 .00011034 00000-0 19996-3 0 9997 2 25544 51.6355 327.3786 0003318 265.7190 94.3420 15.50151873525794 0 CXO 1 25867U 99040B 25238.19739404 .00000777 00000-0 00000-0 0 9998 2 25867 50.9309 126.6818 8312971 310.2751 0.7046 0.37808395 16207 ...Continue Reading

[TLELIST] Current TLEs

August 24th 2025 PDT

0 HST 1 20580U 90037B 25235.55401992 .00004951 00000-0 17900-3 0 9995 2 20580 28.4683 308.0640 0002528 106.0807 254.0066 15.25990445742985 0 ISS (ZARYA) 1 25544U 98067A 25235.75642456 .00011222 00000-0 20339-3 0 9994 2 25544 51.6355 332.1708 0003308 260.2831 99.7785 15.50129787525649 0 CXO 1 25867U 99040B 25238.19739404 .00000777 00000-0 00000-0 0 9998 2 25867 50.9309 126.6818 8312971 310.2751 0.7046 0.37808395 16207 ...Continue Reading

[TLELIST] Current TLEs

August 23rd 2025 PDT

0 HST 1 20580U 90037B 25234.57302208 .00004978 00000-0 18008-3 0 9995 2 20580 28.4686 314.7205 0002523 96.7522 263.3360 15.25980944742830 0 ISS (ZARYA) 1 25544U 98067A 25232.79082775 .00012706 00000-0 22974-3 0 9992 2 25544 51.6357 346.8656 0003381 246.2794 113.7840 15.50060649525187 0 CXO 1 25867U 99040B 25235.55222071 .00000790 00000-0 00000-0 0 9997 2 25867 50.8951 126.7668 8319551 310.2693 0.6101 0.37806890 16196 ...Continue Reading

[TLELIST] Current TLEs

August 22nd 2025 PDT

0 HST 1 20580U 90037B 25232.61100770 .00006037 00000-0 22024-3 0 9999 2 20580 28.4689 328.0324 0002514 77.9750 282.1127 15.25961717742531 0 ISS (ZARYA) 1 25544U 98067A 25232.79082775 .00012706 00000-0 22974-3 0 9992 2 25544 51.6357 346.8656 0003381 246.2794 113.7840 15.50060649525187 0 CXO 1 25867U 99040B 25235.55222071 .00000790 00000-0 00000-0 0 9997 2 25867 50.8951 126.7668 8319551 310.2693 0.6101 0.37806890 16196 ...Continue Reading

[TLELIST] Current TLEs

August 21st 2025 PDT

0 HST 1 20580U 90037B 25232.61100770 .00006037 00000-0 22024-3 0 9999 2 20580 28.4689 328.0324 0002514 77.9750 282.1127 15.25961717742531 0 ISS (ZARYA) 1 25544U 98067A 25232.79082775 .00012706 00000-0 22974-3 0 9992 2 25544 51.6357 346.8656 0003381 246.2794 113.7840 15.50060649525187 0 CXO 1 25867U 99040B 25235.55222071 .00000790 00000-0 00000-0 0 9997 2 25867 50.8951 126.7668 8319551 310.2693 0.6101 0.37806890 16196 ...Continue Reading

[TLELIST] Current TLEs

August 21st 2025 PDT

0 HST 1 20580U 90037B 25232.61100770 .00006037 00000-0 22024-3 0 9999 2 20580 28.4689 328.0324 0002514 77.9750 282.1127 15.25961717742531 0 ISS (ZARYA) 1 25544U 98067A 25232.79082775 .00012706 00000-0 22974-3 0 9992 2 25544 51.6357 346.8656 0003381 246.2794 113.7840 15.50060649525187 0 CXO 1 25867U 99040B 25235.55222071 .00000790 00000-0 00000-0 0 9997 2 25867 50.8951 126.7668 8319551 310.2693 0.6101 0.37806890 16196 ...Continue Reading

[TLELIST] Current TLEs

August 20th 2025 PDT

0 HST 1 20580U 90037B 25231.49918717 .00005738 00000-0 20900-3 0 9990 2 20580 28.4690 335.5751 0002504 67.6300 292.4560 15.25949039742365 0 ISS (ZARYA) 1 25544U 98067A 25232.14611464 .00013664 00000-0 24658-3 0 9999 2 25544 51.6354 350.0598 0003380 243.5823 116.4819 15.50043772525081 0 CXO 1 25867U 99040B 25232.90682790 .00000821 00000-0 00000-0 0 9996 2 25867 50.8400 126.8751 8325737 310.2370 0.5231 0.37803428 16180 ...Continue Reading
  • This mailing list is a public mailing list - anyone may join or leave, at any time.
  • This mailing list is announce-only.

International Space Station (ISS) / Hubble Space Telescope (HST) / Chandra X-Ray Observatory Orbital Data via EMAIL

Privacy Policy:

Private list